Delta Virtual Airport Information Service

London Heathrow Airport

ICAO: EGLL Country: United Kingdom
Latitude: 51.4775 Longitude: -0.46138
Latest Arrival : DAL16 (KDTW-EGLL) Latest Departure : DAC124 (EGLL-CYUL)


WX CaptureLIVE
Data provided by noaa.gov | Fetched at 08:04:42

METAR : EGLL 061350Z AUTO 07006KT 9999 OVC043 06/M02 Q1033

TAF : EGLL 061055Z 0612/0718 05005KT 9999 SCT038


Runway Data for EGLL
Data provided by openaviationdata.com

Runway ID Mag Var Hdg Length Elevation Surface ILS Freq ILS Id ILS Slope
09L -1 90° 13160 ft 83 ft Asphalt 110.3 IAA 3
09R -1 91° 12396 ft 83 ft Asphalt 109.5 IBB 3
27L -1 271° 12396 ft 83 ft Asphalt 109.5 ILL 3
27R -1 270° 13160 ft 83 ft Asphalt 110.3 IRR 3

London Heathrow Airport, United Kingdom
Use only for reference purposes



Not for navigational purposes.